DW9080 Weather Reports


time (UTC)temp
C
wind
direction
speed
KPH
gust
KPH
rain 1hr
cm
rain 24hr
cm
rain mn
cm
humidity
%
barometer
mb
20260902063101 15 228 0.0 0.0 0.05 0.46 0.41 98 1014.7
20260902062542 15 243 0.0 0.0 0.05 0.46 0.41 97 1014.8
20260902062041 15 224 0.0 0.0 0.05 0.46 0.41 97 1014.9
20260902061550 15 224 0.0 0.0 0.05 0.43 0.38 97 1014.9
20260902061041 15 223 0.0 0.0 0.05 0.43 0.38 97 1014.9
20260902060540 15 223 0.0 0.0 0.05 0.43 0.38 96 1015.0
20260902060054 15 224 0.0 0.0 0.05 0.43 0.36 96 1015.1
20260902055540 15 223 0.0 0.0 0.05 0.43 0.36 96 1015.1
20260902055039 15 224 0.0 0.0 0.05 0.56 0.33 96 1015.0
20260902054543 15 223 0.0 1.6 0.05 0.56 0.33 96 1015.1
20260902054042 15 223 0.0 1.6 0.05 0.56 0.33 95 1015.2
20260902053539 15 231 0.0 1.6 0.05 0.56 0.33 95 1015.2
20260902053041 15 223 0.0 0.0 0.05 0.56 0.33 95 1015.2
20260902052537 15 167 0.0 0.0 0.10 0.56 0.33 96 1015.3
20260902052038 15 167 0.0 1.6 0.15 0.56 0.33 96 1015.3
20260902051537 15 167 0.0 1.6 0.20 0.56 0.33 95 1015.3
20260902051036 15 212 0.0 1.6 0.20 0.53 0.33 95 1015.3
20260902050519 15 193 0.0 1.6 0.18 0.51 0.30 95 1015.2
20260902050022 15 226 0.0 1.6 0.18 0.51 0.30 95 1015.2
20260902045517 15 132 0.0 0.0 0.18 0.51 0.30 95 1015.3
20260902045017 15 132 0.0 1.6 0.18 0.71 0.30 95 1015.3
20260902044534 15 132 0.0 1.6 0.18 0.71 0.30 94 1015.1
20260902044017 16 156 0.0 0.0 0.18 0.71 0.30 94 1015.1
20260902043559 16 156 0.0 0.0 0.18 0.71 0.30 94 1015.0
20260902043108 16 187 0.0 0.0 0.18 0.71 0.30 94 1014.9
20260902042600 16 148 0.0 1.6 0.13 0.64 0.23 94 1014.9
20260902042057 16 134 0.0 1.6 0.08 0.61 0.20 94 1014.7
20260902041556 16 63 0.0 0.0 0.03 0.53 0.15 93 1014.5
20260902041058 16 64 0.0 0.0 0.00 0.51 0.13 93 1014.5
20260902040538 16 63 0.0 1.6 0.00 0.51 0.13 93 1014.6
20260902040038 16 57 0.0 1.6 0.00 0.51 0.13 93 1014.5
20260902035536 16 253 0.0 0.0 0.00 0.51 0.13 93 1014.3
20260902035037 16 253 0.0 0.0 0.00 0.61 0.13 93 1014.3
20260902034535 16 253 0.0 0.0 0.00 0.61 0.13 93 1013.9
20260902034034 16 254 0.0 0.0 0.00 0.61 0.13 93 1013.9
20260902033516 16 253 0.0 0.0 0.00 0.61 0.13 94 1013.7
20260902033015 16 252 0.0 0.0 0.00 0.61 0.13 94 1013.6
20260902032518 16 252 0.0 0.0 0.00 0.61 0.13 94 1013.6
20260902032013 16 253 0.0 0.0 0.00 0.61 0.13 94 1013.4
20260902031519 16 253 0.0 0.0 0.00 0.61 0.13 94 1013.3
20260902031012 16 253 0.0 0.0 0.00 0.61 0.13 94 1013.2
20260902030611 16 253 0.0 0.0 0.00 0.61 0.13 94 1013.2
20260902030056 16 253 0.0 0.0 0.00 0.61 0.13 94 1013.0
20260902025553 16 254 0.0 0.0 0.00 0.61 0.13 94 1013.0
20260902025053 16 252 0.0 0.0 0.00 0.61 0.13 94 1012.9
20260902024602 16 253 0.0 0.0 0.00 0.99 0.13 94 1012.7
20260902024052 16 253 0.0 0.0 0.00 0.99 0.13 94 1012.7
20260902023550 16 253 0.0 0.0 0.00 0.99 0.13 94 1012.5
20260902023032 16 253 0.0 0.0 0.00 0.99 0.13 94 1012.4
20260902022531 16 252 0.0 0.0 0.00 0.99 0.13 94 1012.4
20260902022033 16 253 0.0 0.0 0.00 0.99 0.13 93 1012.3
20260902021541 16 253 0.0 0.0 0.00 0.99 0.13 93 1012.2
20260902021032 16 253 0.0 0.0 0.00 0.99 0.13 93 1012.0
20260902020535 16 253 0.0 0.0 0.00 0.99 0.13 93 1012.0
20260902020011 16 253 0.0 0.0 0.00 0.99 0.13 93 1011.9
20260902015510 16 253 0.0 0.0 0.00 0.99 0.13 93 1011.8
20260902015010 16 253 0.0 0.0 0.00 1.09 0.13 93 1011.7
20260902014526 16 254 0.0 0.0 0.00 1.09 0.13 93 1011.6
20260902014008 16 252 0.0 0.0 0.00 1.09 0.13 93 1011.5
20260902013508 16 253 0.0 0.0 0.00 1.09 0.13 93 1011.5
20260902013056 16 253 0.0 0.0 0.00 1.09 0.13 92 1011.4
20260902012556 16 254 0.0 0.0 0.00 1.09 0.13 92 1011.3
20260902012100 16 240 0.0 0.0 0.00 1.09 0.13 92 1011.2
20260902011554 16 267 0.0 0.0 0.00 1.09 0.13 91 1011.3
20260902011054 16 253 0.0 0.0 0.00 1.09 0.13 90 1011.1
20260902010555 17 301 0.0 1.6 0.00 1.09 0.13 90 1011.0
20260902010054 17 233 0.0 1.6 0.00 1.09 0.13 89 1011.0
20260902005557 17 259 0.0 1.6 0.00 1.09 0.13 88 1010.9
20260902005053 17 231 0.0 1.6 0.00 1.09 0.13 87 1010.8
20260902004552 17 290 0.0 1.6 0.00 1.09 0.13 86 1010.7
20260902004152 17 243 0.0 1.6 0.00 1.09 0.13 86 1010.6
20260902003551 17 252 0.0 1.6 0.00 1.09 0.13 85 1010.4
20260902003050 18 256 0.0 1.6 0.00 1.09 0.13 86 1010.3
20260902002549 18 240 0.0 1.6 0.00 1.09 0.13 86 1010.2
20260902002048 18 264 0.0 1.6 0.00 1.09 0.13 86 1010.1
20260902001549 18 263 0.0 1.6 0.00 1.09 0.13 88 1010.0
20260902001051 18 286 0.0 1.6 0.00 1.09 0.13 88 1010.0
20260902000549 19 257 0.0 1.6 0.00 1.09 0.13 86 1010.1
20260902000048 19 259 0.0 1.6 0.00 1.09 0.13 87 1009.9
20260901235545 20 253 0.0 1.6 0.00 1.09 0.13 85 1009.8
20260901235046 20 222 0.0 1.6 0.00 1.09 0.13 78 1009.6
20260901234602 20 217 0.0 1.6 0.00 1.09 0.13 77 1009.4
20260901234046 20 138 0.0 1.6 0.00 1.09 0.13 79 1009.4
20260901233544 20 159 0.0 1.6 0.00 1.09 0.13 81 1009.5
20260901233028 20 58 0.0 0.0 0.00 1.09 0.13 84 1009.4
20260901232529 20 58 0.0 0.0 0.00 1.09 0.13 85 1009.3
20260901232027 20 57 0.0 0.0 0.00 1.09 0.13 85 1009.3
20260901231532 20 56 0.0 0.0 0.00 1.09 0.13 86 1009.2
20260901231026 20 56 0.0 0.0 0.00 1.09 0.13 85 1009.2
20260901230526 20 60 0.0 0.0 0.00 1.09 0.13 85 1009.2
20260901230013 20 63 0.0 0.0 0.00 1.09 0.13 84 1009.3
20260901225508 20 66 0.0 0.0 0.00 1.09 0.13 85 1009.3
20260901225008 20 65 0.0 0.0 0.00 1.09 0.13 84 1009.3
20260901224508 20 65 0.0 1.6 0.00 1.09 0.13 83 1009.3
20260901224008 20 54 0.0 1.6 0.00 1.09 0.13 83 1009.1
20260901223507 20 71 0.0 3.2 0.00 1.09 0.13 86 1009.0
20260901223059 20 63 0.0 0.0 0.00 1.09 0.13 88 1008.9
20260901222547 19 63 0.0 0.0 0.00 1.09 0.13 89 1008.8
20260901222046 19 63 0.0 3.2 0.00 1.09 0.13 92 1008.7
20260901221608 18 57 0.0 3.2 0.00 1.09 0.13 96 1008.8
20260901221043 18 141 0.0 1.6 0.00 1.09 0.13 99 1008.9
20260901220542 18 127 0.0 1.6 0.00 1.09 0.13 99 1009.0
20260901220023 17 54 0.0 1.6 0.00 1.09 0.13 99 1009.1
20260901215523 17 98 0.0 1.6 0.00 1.09 0.13 99 1009.0
20260901215027 17 73 0.0 0.0 0.00 1.09 0.13 99 1009.0
20260901214521 17 59 0.0 1.6 0.00 1.09 0.13 99 1009.0
20260901214023 17 135 0.0 1.6 0.00 1.09 0.13 99 1009.2
20260901213519 17 89 0.0 1.6 0.00 1.09 0.13 99 1009.3
20260901213106 17 70 0.0 1.6 0.00 1.09 0.13 99 1009.4
20260901212600 17 89 0.0 0.0 0.03 1.09 0.13 99 1009.7
20260901212059 16 70 0.0 0.0 0.05 1.09 0.13 99 1009.8
20260901211557 16 63 0.0 0.0 0.05 1.09 0.13 99 1010.0
20260901211056 16 70 0.0 0.0 0.08 1.09 0.13 99 1010.1
20260901210555 15 72 0.0 1.6 0.08 1.09 0.13 99 1010.2
20260901210038 15 72 0.0 1.6 0.13 1.09 0.13 99 1010.3
20260901205538 15 70 0.0 1.6 0.13 1.09 0.13 99 1010.5
20260901205037 15 76 0.0 1.6 0.13 1.09 0.13 99 1010.3
20260901204539 15 65 0.0 1.6 0.13 1.09 0.13 99 1010.3
20260901204037 16 74 0.0 1.6 0.13 1.09 0.13 99 1010.3
20260901203537 16 113 0.0 1.6 0.13 1.09 0.13 99 1010.3
20260901203039 16 61 0.0 1.6 0.10 1.07 0.10 99 1010.4
20260901202517 16 317 0.0 0.0 0.10 1.07 0.10 99 1010.5
20260901202019 16 270 0.0 0.0 0.05 1.02 0.05 98 1010.6
20260901201531 15 269 0.0 0.0 0.05 1.02 0.05 98 1010.7
20260901201015 15 269 0.0 0.0 0.05 0.99 0.05 98 1010.7
20260901200513 15 268 0.0 12.9 0.03 0.99 0.03 97 1010.9
20260901194530 17 225 8.0 22.5 0.05 1.02 0.05 84 1010.0
20260901194029 18 259 14.5 22.5 0.03 0.99 0.03 77 1010.0
20260901193529 20 229 11.3 20.9 0.03 0.99 0.03 81 1010.0
20260901193028 21 236 0.0 1.6 0.00 0.97 0.00 79 1009.9
20260901192531 21 259 0.0 1.6 0.00 0.97 0.00 73 1009.9
20260901192036 22 285 0.0 0.0 0.00 0.97 0.00 72 1009.9
20260901191513 22 309 0.0 0.0 0.00 0.97 0.00 72 1010.0
20260901191015 22 284 0.0 0.0 0.00 0.97 0.00 73 1010.0
20260901190507 22 264 0.0 0.0 0.00 0.97 0.00 71 1010.1
20260901190010 23 263 0.0 0.0 0.00 0.97 0.00 70 1010.2
20260901185508 23 326 0.0 0.0 0.00 0.97 0.00 68 1010.2
20260901185006 23 349 0.0 0.0 0.00 0.97 0.00 67 1010.4
20260901184553 23 300 0.0 1.6 0.00 0.97 0.00 67 1010.4
20260901184047 23 259 0.0 1.6 0.00 0.97 0.00 72 1010.4
20260901183551 23 246 0.0 1.6 0.00 0.97 0.00 67 1010.5
20260901183045 23 304 0.0 0.0 0.00 0.97 0.00 70 1010.5
20260901182546 23 243 0.0 0.0 0.00 0.97 0.00 72 1010.6
20260901182043 23 297 0.0 0.0 0.00 0.97 0.00 73 1010.7
20260901181523 22 253 0.0 1.6 0.00 0.97 0.00 74 1010.8
20260901181022 22 246 0.0 1.6 0.00 0.97 0.00 75 1010.8
20260901180521 22 291 0.0 1.6 0.00 0.97 0.00 76 1011.0
20260901180020 22 256 0.0 1.6 0.00 0.97 0.00 76 1011.0
20260901175520 22 291 0.0 1.6 0.00 0.97 0.00 75 1011.1
20260901175020 21 218 0.0 1.6 0.00 0.97 0.00 75 1011.2
20260901174559 21 253 0.0 1.6 0.00 0.97 0.00 76 1011.2
20260901174100 21 250 0.0 1.6 0.00 0.97 0.00 78 1011.3
20260901173559 21 259 0.0 1.6 0.00 0.97 0.00 78 1011.5
20260901173100 21 273 0.0 1.6 0.00 0.97 0.00 79 1011.5
20260901172600 21 281 0.0 1.6 0.00 0.97 0.00 80 1011.5
20260901172055 21 288 0.0 1.6 0.00 0.97 0.00 80 1011.6
20260901171538 20 257 0.0 1.6 0.00 0.97 0.00 80 1011.6
20260901171035 21 340 0.0 0.0 0.00 0.97 0.00 83 1011.7
20260901170536 20 13 0.0 0.0 0.00 0.97 0.00 84 1011.7
20260901170032 20 34 0.0 1.6 0.00 0.97 0.00 84 1011.8
20260901165530 20 229 0.0 1.6 0.00 0.97 0.00 86 1011.9
20260901165029 20 250 0.0 1.6 0.00 0.97 0.00 88 1011.9
20260901164510 19 240 0.0 1.6 0.00 0.97 0.00 88 1012.0
20260901164008 18 266 0.0 0.0 0.00 0.97 0.00 88 1012.1
20260901163507 18 253 0.0 0.0 0.00 0.97 0.00 89 1012.2
20260901163006 18 253 0.0 0.0 0.00 0.97 0.00 90 1012.2
20260901162504 18 250 0.0 0.0 0.00 0.97 0.00 90 1012.2
20260901162004 18 250 0.0 0.0 0.00 0.97 0.00 91 1012.3
20260901161547 18 250 0.0 0.0 0.00 0.97 0.00 91 1012.3
20260901161047 18 252 0.0 0.0 0.00 0.97 0.00 92 1012.3
20260901160545 18 253 0.0 0.0 0.00 0.97 0.00 95 1012.4
20260901160052 17 252 0.0 0.0 0.00 0.97 0.00 98 1012.5
20260901155541 17 252 0.0 0.0 0.00 0.97 0.00 100 1012.5
20260901155042 17 252 0.0 0.0 0.00 0.97 0.00 100 1012.5
20260901154524 17 253 0.0 0.0 0.00 0.97 0.00 100 1012.6
20260901154019 17 253 0.0 0.0 0.00 0.97 0.00 100 1012.6
20260901153519 17 253 0.0 0.0 0.00 0.97 0.00 100 1012.6
20260901153019 16 253 0.0 0.0 0.00 0.97 0.97 100 1012.6
20260901152520 16 253 0.0 0.0 0.00 0.97 0.97 100 1012.7
20260901152018 16 253 0.0 0.0 0.00 0.97 0.97 100 1012.7
20260901151618 15 253 0.0 0.0 0.00 0.97 0.97 100 1012.7
20260901151100 15 253 0.0 0.0 0.00 0.97 0.97 100 1012.6
20260901150601 15 253 0.0 0.0 0.00 0.97 0.97 100 1012.6
20260901150103 15 253 0.0 0.0 0.00 0.97 0.97 100 1012.7
20260901145559 15 253 0.0 0.0 0.00 0.97 0.97 100 1012.7
20260901145058 15 253 0.0 0.0 0.00 0.97 0.97 100 1012.7
20260901144559 14 254 0.0 0.0 0.00 0.97 0.97 100 1012.7
20260901144041 14 250 0.0 0.0 0.00 0.97 0.97 100 1012.6
20260901143542 14 250 0.0 0.0 0.00 0.97 0.97 100 1012.6
20260901143042 14 250 0.0 0.0 0.00 0.97 0.97 100 1012.6
20260901142541 14 250 0.0 0.0 0.00 0.97 0.97 100 1012.6
20260901142042 14 250 0.0 0.0 0.00 0.97 0.97 100 1012.5
20260901141541 14 252 0.0 0.0 0.00 0.97 0.97 100 1012.4
20260901141028 13 251 0.0 0.0 0.00 0.97 0.97 100 1012.5
20260901140527 13 251 0.0 0.0 0.00 0.97 0.97 100 1012.5
20260901140028 13 252 0.0 0.0 0.00 0.97 0.97 100 1012.6
20260901135529 13 250 0.0 0.0 0.00 0.97 0.97 100 1012.7
20260901135028 13 250 0.0 0.0 0.00 0.97 0.97 100 1012.6
20260901134548 13 250 0.0 0.0 0.00 0.97 0.97 100 1012.4
20260901134026 13 250 0.0 0.0 0.00 0.97 0.97 100 1012.5
20260901133526 13 250 0.0 0.0 0.00 0.97 0.97 100 1012.5
20260901133026 13 250 0.0 0.0 0.00 0.97 0.97 100 1012.4
20260901132526 13 250 0.0 0.0 0.00 0.97 0.97 100 1012.4
20260901132026 13 250 0.0 0.0 0.00 0.97 0.97 100 1012.3
20260901131526 -17 0.0 0.0 0.00 0.97 0.97 1012.3
20260901131024 -17 0.0 0.0 0.00 0.97 0.97 1012.3
20260901130525 -17 0.0 0.0 0.00 0.97 0.97 1012.2
20260901130021 -17 0.0 0.0 0.00 0.97 0.97 1012.3
20260901125520 -17 0.0 0.0 0.00 0.97 0.97 1012.2
20260901125018 -17 0.0 0.0 0.00 0.97 0.97 1012.1
20260901124522 -17 0.0 0.0 0.00 0.97 0.97 1012.1
20260901124014 -17 0.0 0.0 0.00 0.97 0.97 1012.1
20260901123513 -17 0.0 0.0 0.00 0.97 0.97 1012.0
20260901123013 -17 0.0 0.0 0.00 0.97 0.97 1012.0
20260901122510 -17 0.0 0.0 0.00 0.97 0.97 1012.0
20260901122012 -17 0.0 0.0 0.00 0.97 0.97 1012.0
20260901121507 -17 0.0 0.0 0.00 0.97 0.97 1012.0
20260901121054 -17 0.0 0.0 0.00 0.97 0.97 1012.1
20260901120553 -17 0.0 0.0 0.00 0.97 0.97 1012.1
20260901120100 -17 0.0 0.0 0.00 0.97 0.97 1011.9
20260901115550 -17 0.0 0.0 0.00 0.97 0.97 1011.8
20260901115049 -17 0.0 0.0 0.00 0.97 0.97 1011.8
20260901114548 -17 0.0 0.0 0.00 0.97 0.97 1011.9
20260901114045 -17 0.0 0.0 0.00 0.97 0.97 1011.8
20260901113544 -17 0.0 0.0 0.00 0.97 0.97 1011.9
20260901113107 -17 0.0 0.0 0.00 0.97 0.97 1011.8
20260901112540 -17 0.0 0.0 0.00 0.97 0.97 1011.7
20260901112040 -17 0.0 0.0 0.00 0.97 0.97 1011.7
20260901111540 -17 0.0 0.0 0.00 0.97 0.97 1011.7
20260901111037 -17 0.0 0.0 0.00 0.97 0.97 1011.7
20260901110535 -17 0.0 0.0 0.00 0.97 0.97 1011.6
20260901110034 -17 0.0 0.0 0.00 0.97 0.97 1011.6
20260901105533 -17 0.0 0.0 0.00 0.97 0.97 1011.7
20260901105031 -17 0.0 0.0 0.00 0.97 0.97 1011.5
20260901104532 -17 0.0 0.0 0.00 0.97 0.97 1011.7
20260901104029 -17 0.0 0.0 0.00 0.97 0.97 1011.7
20260901103526 -17 0.0 0.0 0.00 0.97 0.97 1011.7
20260901103025 -17 0.0 0.0 0.00 0.97 0.97 1011.7
20260901102524 -17 0.0 0.0 0.00 0.97 0.97 1011.7
20260901102022 -17 0.0 0.0 0.00 0.97 0.97 1011.8
20260901101527 -17 0.0 0.0 0.00 0.97 0.97 1011.8
20260901101002 -17 0.0 0.0 0.00 0.97 0.97 1011.8
20260901100501 14 250 0.0 0.0 0.00 0.97 0.97 100 1011.7
20260901100002 14 250 0.0 0.0 0.00 0.97 0.97 100 1011.8
20260901095601 14 250 0.0 0.0 0.00 0.97 0.97 100 1011.7
20260901095101 14 250 0.0 0.0 0.00 0.97 0.97 100 1011.7
20260901094600 14 250 0.0 0.0 0.00 0.97 0.97 100 1011.7
20260901094043 14 250 0.0 0.0 0.00 0.97 0.97 100 1011.6
20260901093546 14 250 0.0 0.0 0.00 0.97 0.97 100 1011.5
20260901093042 14 250 0.0 0.0 0.00 0.97 0.97 100 1011.5
20260901092542 14 250 0.0 0.0 0.00 0.97 0.97 100 1011.5
20260901092046 14 250 0.0 0.0 0.00 0.97 0.97 100 1011.5
20260901091542 14 250 0.0 0.0 0.00 0.97 0.97 100 1011.4
20260901091024 14 251 0.0 0.0 0.00 0.97 0.97 100 1011.7
20260901090524 14 250 0.0 0.0 0.00 0.97 0.97 100 1011.8
20260901090024 14 250 0.0 0.0 0.00 0.97 0.97 100 1011.7
20260901085524 14 250 0.0 0.0 0.00 0.97 0.97 100 1011.7
20260901085024 14 250 0.0 0.0 0.00 0.97 0.97 100 1011.8
20260901084531 14 250 0.0 0.0 0.00 0.97 0.97 100 1011.8
20260901084010 14 250 0.0 0.0 0.00 0.97 0.97 100 1011.8
20260901083509 14 250 0.0 0.0 0.00 0.97 0.97 100 1011.8
20260901083007 14 250 0.0 0.0 0.00 0.97 0.97 100 1011.8
20260901082506 14 253 0.0 0.0 0.00 0.97 0.97 100 1011.8
20260901082006 14 253 0.0 1.6 0.00 0.97 0.97 100 1011.8
20260901081506 14 251 0.0 1.6 0.00 0.97 0.97 100 1011.9
20260901081106 14 256 0.0 0.0 0.00 0.97 0.97 100 1011.9
20260901080548 14 256 0.0 0.0 0.00 0.97 0.97 100 1011.9
20260901080048 14 256 0.0 0.0 0.00 0.97 0.97 100 1011.9
20260901075548 14 255 0.0 0.0 0.00 0.97 0.97 100 1011.8
20260901075050 14 250 0.0 0.0 0.00 0.97 0.97 100 1011.8
20260901074547 14 243 0.0 0.0 0.00 0.97 0.97 100 1011.9
20260901074047 14 66 0.0 0.0 0.00 0.97 0.97 100 1011.9
20260901073530 14 65 0.0 0.0 0.00 0.97 0.97 100 1011.9
20260901073032 14 65 0.0 0.0 0.00 0.97 0.97 100 1011.9
20260901072532 14 65 0.0 0.0 0.00 0.97 0.97 100 1011.9
20260901072029 14 65 0.0 0.0 0.00 0.97 0.97 100 1012.0
20260901071530 14 65 0.0 0.0 0.03 0.97 0.97 100 1012.0
20260901071033 14 67 0.0 0.0 0.03 0.97 0.97 100 1012.0
20260901070511 14 66 0.0 0.0 0.03 0.97 0.97 100 1011.9
20260901070012 14 66 0.0 0.0 0.03 0.97 0.97 100 1011.9
20260901065511 14 66 0.0 0.0 0.03 0.97 0.97 100 1011.9
20260901065011 14 66 0.0 0.0 0.03 0.97 0.97 100 1012.0
20260901064511 14 67 0.0 0.0 0.05 0.97 0.97 100 1011.9
20260901064011 14 65 0.0 0.0 0.05 0.97 0.97 100 1012.1
20260901063552 14 108 0.0 1.6 0.05 0.97 0.97 100 1012.2